When you browse on this site, cookies collect data to enhance your experience and personalize the content and advertising you see.
Visit our Privacy Policy to learn more. By continuing to use the site, you agree to this use of cookies and data.
  • In Hungary
  • List of Countries
  • For 7 days
  • Water Temperature
  • Weather Map
  • News
  • Weather Widgets
  • user-avatar
    Login

    Hourly Weather Springfield

    Today, 14 November, Thursday

    Time Temperature Precipitation Wind Pressure Humidity
    00:00 -5°C° 0 mm 2 mps 748 mmHg 83%
    01:00 -5°C° 0 mm 2 mps 748 mmHg 84%
    02:00 -6°C° 0 mm 2 mps 748 mmHg 84%
    03:00 -6°C° 0 mm 2 mps 748 mmHg 85%
    04:00 -6°C° 0 mm 2 mps 748 mmHg 87%
    05:00 -6°C° 0 mm 2 mps 749 mmHg 89%
    06:00 -6°C° 0 mm 2 mps 749 mmHg 91%
    07:00 -5°C° 0 mm 2 mps 750 mmHg 90%
    08:00 -4°C° 0 mm 2 mps 751 mmHg 90%
    09:00 -3°C° 0 mm 2 mps 751 mmHg 89%
    10:00 -2°C° 0 mm 2 mps 752 mmHg 87%
    11:00 -1°C° 0 mm 2 mps 752 mmHg 85%
    12:00 0°C° 0 mm 3 mps 752 mmHg 83%
    13:00 0°C° 0 mm 3 mps 752 mmHg 83%
    14:00 0°C° 0 mm 3 mps 752 mmHg 82%
    15:00 0°C° 0 mm 3 mps 752 mmHg 81%
    16:00 -1°C° 0 mm 3 mps 752 mmHg 83%
    17:00 -3°C° 0 mm 2 mps 753 mmHg 85%
    18:00 -4°C° 0 mm 2 mps 753 mmHg 87%
    19:00 -4°C° 0 mm 2 mps 753 mmHg 89%
    20:00 -5°C° 0 mm 2 mps 753 mmHg 90%
    21:00 -5°C° 0 mm 2 mps 754 mmHg 91%
    22:00 -6°C° 0 mm 2 mps 754 mmHg 91%
    23:00 -4°C° 0 mm 1 mps 754 mmHg 92%

    Tomorrow, 15 November, Friday

    Time Temperature Precipitation Wind Pressure Humidity
    00:00 -4°C° 0 mm 1 mps 754 mmHg 92%
    01:00 -4°C° 0 mm 1 mps 754 mmHg 92%
    02:00 -4°C° 0 mm 1 mps 754 mmHg 92%
    03:00 -6°C° 0 mm 2 mps 754 mmHg 92%
    04:00 -7°C° 0 mm 2 mps 754 mmHg 92%
    05:00 -7°C° 0 mm 2 mps 754 mmHg 91%
    06:00 -7°C° 0 mm 2 mps 754 mmHg 91%
    07:00 -6°C° 0 mm 2 mps 754 mmHg 85%
    08:00 -5°C° 0 mm 2 mps 755 mmHg 80%
    09:00 -3°C° 0 mm 2 mps 755 mmHg 74%
    10:00 -2°C° 0 mm 2 mps 755 mmHg 69%
    11:00 +1°C° 0 mm 2 mps 755 mmHg 65%
    12:00 +2°C° 0 mm 2 mps 755 mmHg 60%
    13:00 +2°C° 0 mm 2 mps 754 mmHg 62%
    14:00 +4°C° 0 mm 1 mps 754 mmHg 65%
    15:00 +4°C° 0 mm 1 mps 753 mmHg 67%
    16:00 +3°C° 0 mm 1 mps 753 mmHg 72%
    17:00 +2°C° 0 mm 1 mps 754 mmHg 78%
    18:00 0°C° 0 mm 1 mps 754 mmHg 83%
    19:00 0°C° 0 mm 1 mps 754 mmHg 84%
    20:00 0°C° 0 mm 1 mps 754 mmHg 85%
    21:00 0°C° 0 mm 1 mps 754 mmHg 86%
    22:00 -1°C° 0 mm 1 mps 754 mmHg 87%
    23:00 -1°C° 0 mm 1 mps 754 mmHg 88%

    Day after tomorrow, 16 November, Saturday

    Time Temperature Precipitation Wind Pressure Humidity
    00:00 -1°C° 0 mm 1 mps 754 mmHg 89%
    01:00 -3°C° 0 mm 2 mps 754 mmHg 90%
    02:00 -3°C° 0 mm 2 mps 754 mmHg 91%
    03:00 -4°C° 0 mm 2 mps 754 mmHg 92%
    04:00 -4°C° 0 mm 2 mps 754 mmHg 92%
    05:00 -4°C° 0 mm 2 mps 754 mmHg 93%
    06:00 -4°C° 0 mm 2 mps 754 mmHg 93%
    07:00 -4°C° 0 mm 3 mps 754 mmHg 90%
    08:00 -2°C° 0 mm 3 mps 754 mmHg 87%
    09:00 -1°C° 0 mm 3 mps 754 mmHg 84%
    10:00 0°C° 0 mm 3 mps 753 mmHg 81%
    11:00 +1°C° 0 mm 3 mps 753 mmHg 79%
    12:00 +2°C° 0 mm 3 mps 752 mmHg 76%
    13:00 +3°C° 0 mm 3 mps 752 mmHg 77%
    14:00 +3°C° 0 mm 4 mps 751 mmHg 79%
    15:00 +3°C° 0 mm 4 mps 750 mmHg 80%
    16:00 +1°C° 0 mm 4 mps 750 mmHg 85%
    17:00 -1°C° 0 mm 4 mps 750 mmHg 89%
    18:00 -2°C° 0 mm 4 mps 749 mmHg 94%
    19:00 -2°C° 0 mm 4 mps 749 mmHg 94%
    20:00 -3°C° 0 mm 4 mps 749 mmHg 94%
    21:00 -3°C° 0 mm 4 mps 749 mmHg 95%
    22:00 -2°C° 0 mm 3 mps 748 mmHg 95%
    23:00 -2°C° 0 mm 3 mps 748 mmHg 95%

    17 November, Sunday

    Time Temperature Precipitation Wind Pressure Humidity
    00:00 -2°C° 0 mm 3 mps 748 mmHg 95%
    01:00 -3°C° 0 mm 4 mps 747 mmHg 94%
    02:00 -2°C° 0 mm 4 mps 747 mmHg 94%
    03:00 -2°C° 0 mm 4 mps 746 mmHg 94%
    04:00 -2°C° 0 mm 4 mps 746 mmHg 92%
    05:00 -2°C° 0 mm 4 mps 745 mmHg 91%
    06:00 -1°C° 0 mm 4 mps 745 mmHg 90%
    07:00 -1°C° 0.1 mm 5 mps 744 mmHg 88%
    08:00 0°C° 0.1 mm 5 mps 744 mmHg 86%
    09:00 0°C° 0.1 mm 5 mps 744 mmHg 84%
    10:00 +1°C° 0.4 mm 5 mps 743 mmHg 87%
    11:00 +1°C° 0.4 mm 4 mps 742 mmHg 89%
    12:00 +1°C° 0.4 mm 4 mps 741 mmHg 91%
    13:00 +3°C° 0.2 mm 4 mps 741 mmHg 91%
    14:00 +3°C° 0.2 mm 3 mps 741 mmHg 90%
    15:00 +4°C° 0.2 mm 3 mps 741 mmHg 90%
    16:00 +4°C° 0 mm 3 mps 741 mmHg 90%
    17:00 +3°C° 0 mm 3 mps 741 mmHg 91%
    18:00 +3°C° 0 mm 3 mps 741 mmHg 92%
    19:00 +3°C° 0 mm 3 mps 741 mmHg 89%
    20:00 +2°C° 0 mm 3 mps 741 mmHg 87%
    21:00 +2°C° 0 mm 3 mps 740 mmHg 84%
    22:00 +2°C° 0 mm 3 mps 740 mmHg 84%
    23:00 +1°C° 0 mm 3 mps 740 mmHg 84%

    18 November, Monday

    Time Temperature Precipitation Wind Pressure Humidity
    00:00 +1°C° 0 mm 3 mps 740 mmHg 85%
    01:00 0°C° 0 mm 3 mps 740 mmHg 87%
    02:00 0°C° 0 mm 3 mps 740 mmHg 89%
    03:00 -1°C° 0 mm 2 mps 739 mmHg 92%
    04:00 -1°C° 0 mm 2 mps 739 mmHg 91%
    05:00 -1°C° 0 mm 2 mps 739 mmHg 91%
    06:00 -1°C° 0 mm 2 mps 739 mmHg 90%
    07:00 +1°C° 0 mm 2 mps 739 mmHg 86%
    08:00 +2°C° 0 mm 2 mps 740 mmHg 82%
    09:00 +3°C° 0 mm 2 mps 740 mmHg 77%
    10:00 +4°C° 0 mm 2 mps 739 mmHg 74%
    11:00 +4°C° 0 mm 3 mps 739 mmHg 70%
    12:00 +7°C° 0 mm 3 mps 738 mmHg 66%
    13:00 +7°C° 0 mm 2 mps 738 mmHg 64%
    14:00 +8°C° 0 mm 2 mps 737 mmHg 63%
    15:00 +8°C° 0 mm 2 mps 737 mmHg 61%
    16:00 +7°C° 0 mm 2 mps 737 mmHg 66%
    17:00 +7°C° 0 mm 1 mps 737 mmHg 71%
    18:00 +6°C° 0 mm 1 mps 737 mmHg 76%
    19:00 +6°C° 0 mm 1 mps 737 mmHg 77%
    20:00 +5°C° 0 mm 2 mps 736 mmHg 79%
    21:00 +5°C° 0 mm 2 mps 736 mmHg 80%
    22:00 +5°C° 0.1 mm 2 mps 736 mmHg 83%
    23:00 +5°C° 0.1 mm 2 mps 736 mmHg 85%

    19 November, Tuesday

    Time Temperature Precipitation Wind Pressure Humidity
    00:00 +5°C° 0.1 mm 2 mps 736 mmHg 88%
    01:00 +5°C° 0.2 mm 2 mps 736 mmHg 90%
    02:00 +5°C° 0.2 mm 2 mps 736 mmHg 92%
    03:00 +3°C° 0.2 mm 3 mps 736 mmHg 94%
    04:00 +3°C° 0.3 mm 3 mps 737 mmHg 94%
    05:00 +3°C° 0.3 mm 3 mps 737 mmHg 93%
    06:00 +3°C° 0.3 mm 4 mps 737 mmHg 93%
    07:00 +3°C° 0.2 mm 4 mps 738 mmHg 92%
    08:00 +3°C° 0.2 mm 3 mps 739 mmHg 91%
    09:00 +3°C° 0.2 mm 3 mps 739 mmHg 90%
    10:00 +4°C° 0 mm 4 mps 739 mmHg 86%
    11:00 +4°C° 0 mm 4 mps 740 mmHg 83%
    12:00 +5°C° 0 mm 4 mps 740 mmHg 79%
    13:00 +5°C° 0.1 mm 4 mps 740 mmHg 78%
    14:00 +5°C° 0.1 mm 4 mps 741 mmHg 78%
    15:00 +5°C° 0.1 mm 5 mps 741 mmHg 78%
    16:00 +4°C° 0.1 mm 4 mps 741 mmHg 81%
    17:00 +4°C° 0.1 mm 4 mps 742 mmHg 84%
    18:00 +3°C° 0.1 mm 3 mps 743 mmHg 87%
    19:00 +3°C° 0 mm 3 mps 743 mmHg 88%
    20:00 +2°C° 0 mm 3 mps 744 mmHg 89%
    21:00 +2°C° 0 mm 3 mps 744 mmHg 90%
    22:00 +1°C° 0 mm 3 mps 744 mmHg 91%
    23:00 +1°C° 0 mm 3 mps 744 mmHg 92%
    Show more